Weather Roundup
Issued by NWS

Home | Current Version | Previous Version | Graphics & Text | Print | Product List | Glossary Off
Versions: 1 2 3 4 5 6 7 8 9 10 11 12 13 14 15 16 17 18 19 20 21 22 23 24 25 26 27 28 29 30 31 32 33 34 35 36 37 38 39 40 41 42 43 44 45 46 47 48 49 50

000
NZUS93 KARX 261710
HRRWXR

CURRENT HOURLY OBSERVATIONS ACROSS
MUCH OF THE UPPER MISSISSIPPI VALLEY
NATIONAL WEATHER SERVICE LA CROSSE WI
1100 AM CST THU FEB 26 2015


...SOUTHEAST MINNESOTA...


CITY           SKY/WX    TMP DP  RH WIND       PRES   REMARKS
ROCHESTER      SUNNY      2  -8  63 N12       30.37R WCI -15
ROCHESTER/MAYO FAIR       3  -9  58 N7        30.39R WCI -10
WINONA         SUNNY     10  -4  52 NW6       30.43R WCI   1
AUSTIN         SUNNY      1  -9  60 NW12      30.39R WCI -15
ALBERT LEA     SUNNY      0  -9  65 NW9       30.41R WCI -16
DODGE CENTER   SUNNY      0  -8  71 N15       30.37S HAZE    WCI -20
PRESTON        SUNNY      1  -9  61 N8        30.37R WCI -13
OWATONNA       SUNNY      0  -9  65 NW9       30.42S WCI -16
FARIBAULT      SUNNY      3  -9  55 NW7       30.44R WCI  -9
$$

...ELSEWHERE IN MINNESOTA...


CITY           SKY/WX    TMP DP  RH WIND       PRES   REMARKS
MINNEAPOLIS    SUNNY      5  -9  52 NW6       30.46R WCI  -6
INTNL FALLS    SUNNY     -4 -17  53 NW12      30.42S WCI -22
DULUTH         SUNNY      0 -13  54 NW14      30.36R WCI -19
RED WING       SUNNY      7  -9  47 N5        30.44S WCI  -2
REDWOOD FALLS  SUNNY      0 -11  59 N14G21    30.50R WCI -19
MANKATO        SUNNY      0 -11  60 NW8       30.45S WCI -15
FAIRMONT       MOSUNNY    0  -8  71 NW13      30.44R WCI -18
$$

...SOUTHWEST WISCONSIN...


CITY           SKY/WX    TMP DP  RH WIND       PRES   REMARKS
LA CROSSE      SUNNY      8  -4  58 NW9       30.41R WCI  -5
PRAIRIE DU CHI SUNNY      8  -7  49 NW10      30.38R WCI  -6
BOSCOBEL       SUNNY     11  -7  44 N12       30.37R WCI  -3
LONE ROCK      SUNNY      9  -8  46 VRB6G17   30.35R WCI  -1
PLATTEVILLE    SUNNY      7  -4  61 NW13      30.31R WCI -10
FORT MC COY    SUNNY      9  -6  51 N7        30.38S WCI  -2
CAMP DOUGLAS   MOSUNNY   10  -4  52 NW5       30.35R WCI   2
VIROQUA        FAIR       7  -6  55 N8        30.32R WCI  -6
WIS DELLS      SUNNY      8  -7  50 N7        30.32R WCI  -4
$$

...ELSEWHERE IN WISCONSIN...


CITY           SKY/WX    TMP DP  RH WIND       PRES   REMARKS
MILWAUKEE      PTSUNNY   14   0  53 N12       30.26R WCI   0
MADISON        MOSUNNY    8  -6  52 N12       30.31R WCI  -7
GREEN BAY      MOSUNNY    9  -5  53 N10       30.33S WCI  -5
EAU CLAIRE     SUNNY      4  -7  60 VRB7      30.40R WCI  -8
BLACK RVR FLS  FAIR       8  -6  54 N8        30.37S WCI  -5
MEDFORD        SUNNY      3  -9  56 N9        30.29S WCI -11
WAUSAU         MOSUNNY    4  -9  55 N10       30.29S WCI -11
WIS RAPIDS     SUNNY      7  -8  50 N7        30.34S WCI  -5
MARSHFIELD     SUNNY      5  -8  55 NW13      30.31R WCI -12
RICE LAKE      SUNNY      3  -8  59 NW7       30.41S WCI -10
$$

...NORTHEAST IOWA...


CITY           SKY/WX    TMP DP  RH WIND       PRES   REMARKS
DECORAH        SUNNY      3  -8  60 NW13      30.35R WCI -14
MASON CITY     SUNNY     -1  -9  68 NW14      30.43R WCI -20
CHARLES CITY   SUNNY      0  -9  65 N17       30.40R WCI -21
OELWEIN        SUNNY      3  -6  66 N10       30.37R WCI -12
$$

...ELSEWHERE IN IOWA...


CITY           SKY/WX    TMP DP  RH WIND       PRES   REMARKS
DES MOINES     MOSUNNY    7  -7  52 N15       30.44R WCI -10
IOWA CITY      SUNNY      9  -3  58 N13       30.38R WCI  -7
FORT DODGE     SUNNY      0  -8  71 N8G17     30.46R WCI -15
$$

...NORTHERN ILLINOIS...


CITY           SKY/WX    TMP DP  RH WIND       PRES   REMARKS
CHICAGO-OHARE  LGT SNOW  15   9  76 N14       30.23R WCI   0
CHICAGO-MIDWAY LGT SNOW  19   9  65 N17       30.22R WCI   4
MOLINE         CLOUDY    11   0  61 N10       30.32R WCI  -3
ROCKFORD       MOSUNNY   12  -2  53 N8        30.29R WCI   0
PEORIA         CLOUDY    19   9  65 N13       30.27R WCI   6
$$

NOTE: "FAIR" INDICATES FEW OR NO CLOUDS BELOW 12,000 FEET WITH NO
SIGNIFICANT WEATHER AND/OR OBSTRUCTIONS TO VISIBILITY. WIND
SPEEDS ARE IN MILES-PER-HOUR.



USA.gov is the U.S. government's official web portal to all federal, state and local government web resources and services.